Time,TemperatureF,DewpointF,PressureIn,WindDirection,WindDirectionDegrees,WindSpeedMPH,WindSpeedGustMPH,Humidity,HourlyPrecipIn,Conditions,Clouds,dailyrainin,SoftwareType,DateUTC
2013-03-14 00:02:00,27.5,27.3,29.68,SW,218,0.0,0.0,99,0.00,,,0.00,Wunderground PWS Mod,2013-03-14 04:02:00,
2013-03-14 00:07:00,27.3,27.1,29.68,SW,218,0.0,0.0,99,0.00,,,0.00,Wunderground PWS Mod,2013-03-14 04:07:00,
2013-03-14 00:12:00,27.2,27.0,29.68,SW,218,0.0,1.0,99,0.00,,,0.00,Wunderground PWS Mod,2013-03-14 04:12:00,
2013-03-14 00:20:00,26.9,26.9,29.67,N/A,-737280,0.0,0.0,100,0.00,,,0.00,Wunderground PWS Mod,2013-03-14 04:20:00,
2013-03-14 00:22:00,26.9,26.7,29.68,SW,218,0.0,1.0,99,0.00,,,0.00,Wunderground PWS Mod,2013-03-14 04:22:00,
2013-03-14 00:27:00,26.9,26.7,29.68,SW,218,0.0,1.0,99,0.00,,,0.00,Wunderground PWS Mod,2013-03-14 04:27:00,
2013-03-14 00:32:00,26.9,26.9,29.68,SW,218,0.0,1.0,100,0.00,,,0.00,Wunderground PWS Mod,2013-03-14 04:32:00,
2013-03-14 00:42:00,27.0,27.0,29.67,SW,218,0.0,0.0,100,0.00,,,0.00,Wunderground PWS Mod,2013-03-14 04:42:00,
2013-03-14 00:47:00,27.0,27.0,29.67,SW,218,0.0,0.0,100,0.00,,,0.00,Wunderground PWS Mod,2013-03-14 04:47:00,
2013-03-14 00:50:00,27.3,27.3,29.67,N/A,-737280,0.0,0.0,100,0.00,,,0.00,Wunderground PWS Mod,2013-03-14 04:50:00,
2013-03-14 00:57:00,27.2,27.2,29.67,SW,218,0.0,0.0,100,0.00,,,0.00,Wunderground PWS Mod,2013-03-14 04:57:00,
2013-03-14 01:02:00,27.3,27.3,29.67,SW,218,0.0,0.0,100,0.00,,,0.00,Wunderground PWS Mod,2013-03-14 05:02:00,
2013-03-14 01:12:00,27.5,27.5,29.67,SW,218,0.0,0.0,100,0.00,,,0.00,Wunderground PWS Mod,2013-03-14 05:12:00,
2013-03-14 01:20:00,27.6,27.6,29.66,N/A,-737280,0.0,0.0,100,0.00,,,0.00,Wunderground PWS Mod,2013-03-14 05:20:00,
2013-03-14 01:22:00,27.6,27.6,29.67,SW,218,0.0,0.0,100,0.00,,,0.00,Wunderground PWS Mod,2013-03-14 05:22:00,
2013-03-14 01:27:00,27.8,27.8,29.67,SW,218,0.0,0.0,100,0.00,,,0.00,Wunderground PWS Mod,2013-03-14 05:27:00,
2013-03-14 01:32:00,27.8,27.8,29.67,SW,218,0.0,0.0,100,0.00,,,0.00,Wunderground PWS Mod,2013-03-14 05:32:00,
2013-03-14 01:37:00,27.6,27.6,29.66,SW,218,0.0,0.0,100,0.00,,,0.00,Wunderground PWS Mod,2013-03-14 05:37:00,
2013-03-14 01:42:00,27.6,27.6,29.66,SW,218,0.0,0.0,100,0.00,,,0.00,Wunderground PWS Mod,2013-03-14 05:42:00,
2013-03-14 01:45:00,27.0,27.0,29.67,SW,225,0.0,3.0,100,0.00,,,0.00,Wunderground PWS Mod,2013-03-14 05:45:00,
2013-03-14 01:52:00,27.5,27.5,29.67,SW,218,0.0,2.0,100,0.00,,,0.00,Wunderground PWS Mod,2013-03-14 05:52:00,
2013-03-14 01:57:00,27.3,27.3,29.67,WSW,240,0.0,0.0,100,0.00,,,0.00,Wunderground PWS Mod,2013-03-14 05:57:00,
2013-03-14 02:07:00,27.0,27.0,29.67,WSW,240,0.0,0.0,100,0.00,,,0.00,Wunderground PWS Mod,2013-03-14 06:07:00,
2013-03-14 02:12:00,27.0,27.0,29.67,WSW,240,0.0,3.0,100,0.00,,,0.00,Wunderground PWS Mod,2013-03-14 06:12:00,
2013-03-14 02:15:00,27.0,27.0,29.67,WSW,248,0.0,2.0,100,0.00,,,0.00,Wunderground PWS Mod,2013-03-14 06:15:00,
2013-03-14 02:22:00,27.0,27.0,29.67,WSW,240,0.0,3.0,100,0.00,,,0.00,Wunderground PWS Mod,2013-03-14 06:22:00,
2013-03-14 02:27:00,27.0,27.0,29.67,WSW,240,0.0,3.0,100,0.00,,,0.00,Wunderground PWS Mod,2013-03-14 06:27:00,
2013-03-14 02:32:00,27.0,27.0,29.67,WSW,240,0.0,3.0,100,0.00,,,0.00,Wunderground PWS Mod,2013-03-14 06:32:00,
2013-03-14 02:37:00,27.0,27.0,29.66,WSW,240,0.0,3.0,100,0.00,,,0.00,Wunderground PWS Mod,2013-03-14 06:37:00,
2013-03-14 02:42:00,27.0,27.0,29.66,WSW,240,0.0,2.0,100,0.00,,,0.00,Wunderground PWS Mod,2013-03-14 06:42:00,
2013-03-14 02:50:00,27.0,27.0,29.65,WSW,248,0.0,2.0,100,0.00,,,0.00,Wunderground PWS Mod,2013-03-14 06:50:00,
2013-03-14 02:52:00,27.0,27.0,29.66,WSW,240,0.0,2.0,100,0.00,,,0.00,Wunderground PWS Mod,2013-03-14 06:52:00,
2013-03-14 02:57:00,27.0,27.0,29.66,WSW,240,0.0,2.0,100,0.00,,,0.00,Wunderground PWS Mod,2013-03-14 06:57:00,
2013-03-14 03:02:00,27.0,27.0,29.66,WSW,240,0.0,2.0,100,0.00,,,0.00,Wunderground PWS Mod,2013-03-14 07:02:00,
2013-03-14 03:07:00,27.0,27.0,29.65,WSW,240,0.0,2.0,100,0.00,,,0.00,Wunderground PWS Mod,2013-03-14 07:07:00,
2013-03-14 03:13:00,27.0,27.0,29.65,WSW,240,0.0,2.0,100,0.00,,,0.00,Wunderground PWS Mod,2013-03-14 07:13:00,
2013-03-14 03:15:00,27.0,27.0,29.65,N/A,-737280,0.0,0.0,100,0.00,,,0.00,Wunderground PWS Mod,2013-03-14 07:15:00,
2013-03-14 03:22:00,27.0,27.0,29.65,WSW,240,0.0,2.0,100,0.00,,,0.00,Wunderground PWS Mod,2013-03-14 07:22:00,
2013-03-14 03:27:00,27.0,27.0,29.65,WSW,240,0.0,2.0,100,0.00,,,0.00,Wunderground PWS Mod,2013-03-14 07:27:00,
2013-03-14 03:32:00,27.0,27.0,29.65,WSW,240,0.0,2.0,100,0.00,,,0.00,Wunderground PWS Mod,2013-03-14 07:32:00,
2013-03-14 03:37:00,27.0,27.0,29.65,WSW,240,0.0,2.0,100,0.00,,,0.00,Wunderground PWS Mod,2013-03-14 07:37:00,
2013-03-14 03:42:00,27.0,27.0,29.65,WSW,240,0.0,0.0,100,0.00,,,0.00,Wunderground PWS Mod,2013-03-14 07:42:00,
2013-03-14 03:50:00,27.0,27.0,29.64,WSW,248,0.0,2.0,100,0.00,,,0.00,Wunderground PWS Mod,2013-03-14 07:50:00,
2013-03-14 03:52:00,26.9,26.9,29.65,WSW,240,0.0,0.0,100,0.00,,,0.00,Wunderground PWS Mod,2013-03-14 07:52:00,
2013-03-14 03:57:00,26.9,26.9,29.65,WSW,240,0.0,0.0,100,0.00,,,0.00,Wunderground PWS Mod,2013-03-14 07:57:00,
2013-03-14 04:02:00,26.9,26.9,29.65,WSW,240,0.0,0.0,100,0.00,,,0.00,Wunderground PWS Mod,2013-03-14 08:02:00,
2013-03-14 04:07:00,27.0,27.0,29.64,WSW,240,0.0,0.0,100,0.00,,,0.00,Wunderground PWS Mod,2013-03-14 08:07:00,
2013-03-14 04:12:00,27.0,27.0,29.64,SSW,204,0.0,2.0,100,0.00,,,0.00,Wunderground PWS Mod,2013-03-14 08:12:00,
2013-03-14 04:15:00,26.9,26.7,29.64,SSW,203,1.0,6.0,99,0.00,,,0.00,Wunderground PWS Mod,2013-03-14 08:15:00,
2013-03-14 04:22:00,27.2,27.2,29.64,SSW,207,2.0,4.0,100,0.00,,,0.00,Wunderground PWS Mod,2013-03-14 08:22:00,
2013-03-14 04:27:00,27.0,26.8,29.64,SSW,196,2.0,2.0,99,0.00,,,0.00,Wunderground PWS Mod,2013-03-14 08:27:00,
2013-03-14 04:37:00,26.9,26.7,29.64,SW,216,2.0,2.0,99,0.00,,,0.00,Wunderground PWS Mod,2013-03-14 08:37:00,
2013-03-14 04:42:00,26.9,26.7,29.64,South,182,1.0,6.0,99,0.00,,,0.00,Wunderground PWS Mod,2013-03-14 08:42:00,
2013-03-14 04:45:00,27.0,26.5,29.64,South,180,0.0,5.0,98,0.00,,,0.00,Wunderground PWS Mod,2013-03-14 08:45:00,
2013-03-14 04:52:00,26.9,26.4,29.64,SW,215,1.0,6.0,98,0.00,,,0.00,Wunderground PWS Mod,2013-03-14 08:52:00,
2013-03-14 04:57:00,27.0,26.5,29.64,SW,214,0.0,6.0,98,0.00,,,0.00,Wunderground PWS Mod,2013-03-14 08:57:00,
2013-03-14 05:07:00,27.0,26.5,29.64,South,180,0.0,6.0,98,0.00,,,0.00,Wunderground PWS Mod,2013-03-14 09:07:00,
2013-03-14 05:12:00,27.0,26.3,29.64,South,180,0.0,5.0,97,0.00,,,0.00,Wunderground PWS Mod,2013-03-14 09:12:00,
2013-03-14 05:20:00,26.9,26.2,29.64,South,180,0.0,2.0,97,0.00,,,0.00,Wunderground PWS Mod,2013-03-14 09:20:00,
2013-03-14 05:22:00,26.9,26.2,29.65,South,188,0.0,5.0,97,0.00,,,0.00,Wunderground PWS Mod,2013-03-14 09:22:00,
2013-03-14 05:27:00,26.9,26.2,29.65,South,188,0.0,5.0,97,0.00,,,0.00,Wunderground PWS Mod,2013-03-14 09:27:00,
2013-03-14 05:32:00,26.9,26.2,29.65,South,188,0.0,5.0,97,0.00,,,0.00,Wunderground PWS Mod,2013-03-14 09:32:00,
2013-03-14 05:37:00,26.9,26.2,29.64,South,188,0.0,5.0,97,0.00,,,0.00,Wunderground PWS Mod,2013-03-14 09:37:00,
2013-03-14 05:42:00,26.9,26.2,29.64,South,188,0.0,2.0,97,0.00,,,0.00,Wunderground PWS Mod,2013-03-14 09:42:00,
2013-03-14 05:45:00,26.6,25.4,29.64,SSW,203,1.0,9.0,95,0.00,,,0.00,Wunderground PWS Mod,2013-03-14 09:45:00,
2013-03-14 05:52:00,26.7,26.0,29.65,SSW,195,1.0,4.0,97,0.00,,,0.00,Wunderground PWS Mod,2013-03-14 09:52:00,
2013-03-14 06:02:00,26.6,25.6,29.65,SW,224,2.0,5.0,96,0.00,,,0.00,Wunderground PWS Mod,2013-03-14 10:02:00,
2013-03-14 06:07:00,26.6,25.4,29.64,SW,227,2.0,3.0,95,0.00,,,0.00,Wunderground PWS Mod,2013-03-14 10:07:00,
2013-03-14 06:12:00,26.4,24.9,29.64,SW,227,1.0,9.0,94,0.00,,,0.00,Wunderground PWS Mod,2013-03-14 10:12:00,
2013-03-14 06:20:00,26.3,22.7,29.65,SSW,203,3.0,15.0,86,0.00,,,0.00,Wunderground PWS Mod,2013-03-14 10:20:00,
2013-03-14 06:22:00,26.3,24.3,29.65,South,185,1.0,9.0,92,0.00,,,0.00,Wunderground PWS Mod,2013-03-14 10:22:00,
2013-03-14 06:27:00,26.3,23.8,29.65,South,189,2.0,9.0,90,0.00,,,0.00,Wunderground PWS Mod,2013-03-14 10:27:00,
2013-03-14 06:32:00,26.3,23.0,29.65,South,184,4.0,9.0,87,0.00,,,0.00,Wunderground PWS Mod,2013-03-14 10:32:00,
2013-03-14 06:42:00,26.3,22.4,29.65,SSW,192,4.0,15.0,85,0.00,,,0.00,Wunderground PWS Mod,2013-03-14 10:42:00,
2013-03-14 06:45:00,26.3,22.1,29.65,SSW,203,2.0,11.0,84,0.00,,,0.00,Wunderground PWS Mod,2013-03-14 10:45:00,
2013-03-14 06:52:00,26.3,22.4,29.65,South,171,2.0,15.0,85,0.00,,,0.00,Wunderground PWS Mod,2013-03-14 10:52:00,
2013-03-14 06:57:00,26.3,22.4,29.65,SSE,167,1.0,15.0,85,0.00,,,0.00,Wunderground PWS Mod,2013-03-14 10:57:00,
2013-03-14 07:02:00,26.3,22.1,29.65,SW,221,2.0,15.0,84,0.00,,,0.00,Wunderground PWS Mod,2013-03-14 11:02:00,
2013-03-14 07:13:00,26.3,22.1,29.65,SSW,207,1.0,11.0,84,0.00,,,0.00,Wunderground PWS Mod,2013-03-14 11:13:00,
2013-03-14 07:15:00,26.1,21.6,29.66,SSE,158,1.0,11.0,83,0.00,,,0.00,Wunderground PWS Mod,2013-03-14 11:15:00,
2013-03-14 07:22:00,26.1,21.6,29.66,SE,139,1.0,11.0,83,0.00,,,0.00,Wunderground PWS Mod,2013-03-14 11:22:00,
2013-03-14 07:32:00,26.1,21.6,29.66,SE,143,2.0,11.0,83,0.00,,,0.00,Wunderground PWS Mod,2013-03-14 11:32:00,
2013-03-14 07:37:00,26.1,21.6,29.66,SSW,202,1.0,11.0,83,0.00,,,0.00,Wunderground PWS Mod,2013-03-14 11:37:00,
2013-03-14 07:42:00,26.1,21.9,29.66,SSE,161,1.0,11.0,84,0.00,,,0.00,Wunderground PWS Mod,2013-03-14 11:42:00,
2013-03-14 07:50:00,26.0,21.3,29.66,SSE,158,2.0,11.0,82,0.00,,,0.00,Wunderground PWS Mod,2013-03-14 11:50:00,
2013-03-14 07:52:00,26.0,21.3,29.66,SSE,163,2.0,11.0,82,0.00,,,0.00,Wunderground PWS Mod,2013-03-14 11:52:00,
2013-03-14 07:57:00,26.0,21.5,29.66,SSE,155,2.0,11.0,83,0.00,,,0.00,Wunderground PWS Mod,2013-03-14 11:57:00,
2013-03-14 08:02:00,26.0,21.3,29.66,SSE,160,2.0,11.0,82,0.00,,,0.00,Wunderground PWS Mod,2013-03-14 12:02:00,
2013-03-14 08:07:00,26.0,21.3,29.66,SSE,160,2.0,11.0,82,0.00,,,0.00,Wunderground PWS Mod,2013-03-14 12:07:00,
2013-03-14 08:13:00,26.0,21.3,29.66,SSW,197,2.0,11.0,82,0.00,,,0.00,Wunderground PWS Mod,2013-03-14 12:13:00,
2013-03-14 08:15:00,26.1,20.5,29.67,SSW,203,3.0,12.0,79,0.00,,,0.00,Wunderground PWS Mod,2013-03-14 12:15:00,
2013-03-14 08:22:00,26.0,21.0,29.66,SSE,153,2.0,11.0,81,0.00,,,0.00,Wunderground PWS Mod,2013-03-14 12:22:00,
2013-03-14 08:32:00,26.0,20.7,29.66,SSW,211,2.0,11.0,80,0.00,,,0.00,Wunderground PWS Mod,2013-03-14 12:32:00,
2013-03-14 08:37:00,26.1,20.5,29.67,SW,230,4.0,11.0,79,0.00,,,0.00,Wunderground PWS Mod,2013-03-14 12:37:00,
2013-03-14 08:42:00,26.3,20.7,29.67,SSW,208,3.0,12.0,79,0.00,,,0.00,Wunderground PWS Mod,2013-03-14 12:42:00,
2013-03-14 08:50:00,26.6,20.1,29.67,South,180,3.0,11.0,76,0.00,,,0.00,Wunderground PWS Mod,2013-03-14 12:50:00,
2013-03-14 08:52:00,26.3,20.4,29.67,South,188,3.0,12.0,78,0.00,,,0.00,Wunderground PWS Mod,2013-03-14 12:52:00,
2013-03-14 08:57:00,26.4,20.2,29.67,SW,235,3.0,12.0,77,0.00,,,0.00,Wunderground PWS Mod,2013-03-14 12:57:00,
2013-03-14 09:02:00,26.6,20.1,29.67,SSW,195,4.0,12.0,76,0.00,,,0.00,Wunderground PWS Mod,2013-03-14 13:02:00,
2013-03-14 09:07:00,26.6,20.1,29.67,SSW,206,3.0,12.0,76,0.00,,,0.00,Wunderground PWS Mod,2013-03-14 13:07:00,
2013-03-14 09:13:00,26.9,20.0,29.67,SSW,196,3.0,11.0,75,0.00,,,0.00,Wunderground PWS Mod,2013-03-14 13:13:00,
2013-03-14 09:15:00,26.7,19.2,29.67,SSW,203,5.0,14.0,73,0.00,,,0.00,Wunderground PWS Mod,2013-03-14 13:15:00,
2013-03-14 09:22:00,26.6,19.4,29.68,SSW,194,7.0,11.0,74,0.00,,,0.00,Wunderground PWS Mod,2013-03-14 13:22:00,
2013-03-14 09:27:00,26.7,19.5,29.68,SW,222,6.0,11.0,74,0.00,,,0.00,Wunderground PWS Mod,2013-03-14 13:27:00,
2013-03-14 09:32:00,26.7,19.2,29.68,South,191,4.0,11.0,73,0.00,,,0.00,Wunderground PWS Mod,2013-03-14 13:32:00,
2013-03-14 09:37:00,26.7,19.2,29.67,South,170,3.0,11.0,73,0.00,,,0.00,Wunderground PWS Mod,2013-03-14 13:37:00,
2013-03-14 09:42:00,26.7,18.6,29.67,SW,221,3.0,14.0,71,0.00,,,0.00,Wunderground PWS Mod,2013-03-14 13:42:00,
2013-03-14 09:45:00,26.6,18.5,29.68,SSW,203,3.0,13.0,71,0.00,,,0.00,Wunderground PWS Mod,2013-03-14 13:45:00,
2013-03-14 09:52:00,26.7,18.9,29.68,SSW,200,4.0,14.0,72,0.00,,,0.00,Wunderground PWS Mod,2013-03-14 13:52:00,
2013-03-14 10:02:00,26.9,19.1,29.68,West,260,2.0,14.0,72,0.00,,,0.00,Wunderground PWS Mod,2013-03-14 14:02:00,
2013-03-14 10:12:00,26.4,18.6,29.68,SW,236,3.0,13.0,72,0.00,,,0.00,Wunderground PWS Mod,2013-03-14 14:12:00,
2013-03-14 10:15:00,26.7,17.9,29.68,SSW,203,3.0,10.0,69,0.00,,,0.00,Wunderground PWS Mod,2013-03-14 14:15:00,
2013-03-14 10:22:00,26.1,18.0,29.68,SE,144,4.0,13.0,71,0.00,,,0.00,Wunderground PWS Mod,2013-03-14 14:22:00,
2013-03-14 10:27:00,26.4,18.3,29.68,West,275,2.0,13.0,71,0.00,,,0.00,Wunderground PWS Mod,2013-03-14 14:27:00,
2013-03-14 10:32:00,26.7,18.2,29.68,WSW,242,1.0,13.0,70,0.00,,,0.00,Wunderground PWS Mod,2013-03-14 14:32:00,
2013-03-14 10:37:00,26.7,18.2,29.68,West,265,2.0,13.0,70,0.00,,,0.00,Wunderground PWS Mod,2013-03-14 14:37:00,
2013-03-14 10:42:00,26.7,16.9,29.68,West,268,3.0,10.0,66,0.00,,,0.00,Wunderground PWS Mod,2013-03-14 14:42:00,
2013-03-14 10:45:00,26.9,15.6,29.68,West,270,2.0,10.0,62,0.00,,,0.00,Wunderground PWS Mod,2013-03-14 14:45:00,
2013-03-14 10:52:00,26.4,16.2,29.68,North,5,3.0,10.0,65,0.00,,,0.00,Wunderground PWS Mod,2013-03-14 14:52:00,
2013-03-14 10:57:00,26.6,15.7,29.68,NE,54,2.0,10.0,63,0.00,,,0.00,Wunderground PWS Mod,2013-03-14 14:57:00,
2013-03-14 11:02:00,26.7,15.4,29.68,West,263,1.0,10.0,62,0.00,,,0.00,Wunderground PWS Mod,2013-03-14 15:02:00,
2013-03-14 11:07:00,26.9,15.6,29.68,SE,138,2.0,10.0,62,0.00,,,0.00,Wunderground PWS Mod,2013-03-14 15:07:00,
2013-03-14 11:12:00,26.6,15.7,29.68,WSW,242,4.0,10.0,63,0.00,,,0.00,Wunderground PWS Mod,2013-03-14 15:12:00,
2013-03-14 11:15:00,27.9,15.0,29.68,WSW,248,4.0,14.0,58,0.00,,,0.00,Wunderground PWS Mod,2013-03-14 15:15:00,
2013-03-14 11:22:00,27.0,15.3,29.68,WNW,290,3.0,10.0,61,0.00,,,0.00,Wunderground PWS Mod,2013-03-14 15:22:00,
2013-03-14 11:27:00,27.2,15.5,29.68,WSW,244,3.0,10.0,61,0.00,,,0.00,Wunderground PWS Mod,2013-03-14 15:27:00,
2013-03-14 11:32:00,27.8,14.5,29.68,WNW,296,4.0,12.0,57,0.00,,,0.00,Wunderground PWS Mod,2013-03-14 15:32:00,
2013-03-14 11:37:00,27.9,14.2,29.68,SSW,209,6.0,10.0,56,0.00,,,0.00,Wunderground PWS Mod,2013-03-14 15:37:00,
2013-03-14 11:42:00,27.8,13.3,29.68,NW,313,5.0,14.0,54,0.00,,,0.00,Wunderground PWS Mod,2013-03-14 15:42:00,
2013-03-14 11:45:00,27.9,13.8,29.67,WSW,248,5.0,16.0,55,0.00,,,0.00,Wunderground PWS Mod,2013-03-14 15:45:00,
2013-03-14 11:52:00,27.2,13.6,29.67,WSW,250,5.0,14.0,56,0.00,,,0.00,Wunderground PWS Mod,2013-03-14 15:52:00,
2013-03-14 11:57:00,27.6,13.5,29.67,WSW,249,4.0,14.0,55,0.00,,,0.00,Wunderground PWS Mod,2013-03-14 15:57:00,
2013-03-14 12:02:00,28.1,14.4,29.67,WSW,243,5.0,14.0,56,0.00,,,0.00,Wunderground PWS Mod,2013-03-14 16:02:00,
2013-03-14 12:12:00,27.9,12.5,29.67,West,281,6.0,16.0,52,0.00,,,0.00,Wunderground PWS Mod,2013-03-14 16:12:00,
2013-03-14 12:15:00,26.4,15.1,29.67,WSW,248,6.0,16.0,62,0.00,,,0.00,Wunderground PWS Mod,2013-03-14 16:15:00,
2013-03-14 12:22:00,28.1,16.0,29.66,SW,233,6.0,16.0,60,0.00,,,0.00,Wunderground PWS Mod,2013-03-14 16:22:00,
2013-03-14 12:27:00,26.9,15.6,29.66,NE,55,8.0,16.0,62,0.00,,,0.00,Wunderground PWS Mod,2013-03-14 16:27:00,
2013-03-14 12:32:00,26.6,15.3,29.66,NNW,337,5.0,16.0,62,0.00,,,0.00,Wunderground PWS Mod,2013-03-14 16:32:00,
2013-03-14 12:40:00,26.4,15.1,29.67,WSW,248,6.0,16.0,62,0.00,,,0.00,Wunderground PWS Mod,2013-03-14 16:40:00,
2013-03-14 12:42:00,26.4,15.1,29.67,NE,49,5.0,16.0,62,0.00,,,0.00,Wunderground PWS Mod,2013-03-14 16:42:00,
2013-03-14 12:47:00,26.4,15.9,29.67,WNW,283,5.0,16.0,64,0.00,,,0.00,Wunderground PWS Mod,2013-03-14 16:47:00,
2013-03-14 12:52:00,26.6,16.8,29.66,West,279,5.0,16.0,66,0.00,,,0.00,Wunderground PWS Mod,2013-03-14 16:52:00,
2013-03-14 13:02:00,26.1,16.6,29.66,West,270,4.0,16.0,67,0.00,,,0.00,Wunderground PWS Mod,2013-03-14 17:02:00,
2013-03-14 13:07:00,25.8,16.7,29.67,WNW,294,3.0,16.0,68,0.00,,,0.00,Wunderground PWS Mod,2013-03-14 17:07:00,
2013-03-14 13:13:00,25.7,16.6,29.67,North,360,2.0,16.0,68,0.00,,,0.00,Wunderground PWS Mod,2013-03-14 17:13:00,
2013-03-14 13:20:00,25.0,15.6,29.67,West,270,4.0,15.0,67,0.00,,,0.00,Wunderground PWS Mod,2013-03-14 17:20:00,
2013-03-14 13:22:00,25.4,15.6,29.67,WNW,288,4.0,16.0,66,0.00,,,0.00,Wunderground PWS Mod,2013-03-14 17:22:00,
2013-03-14 13:27:00,25.1,15.3,29.67,NNE,19,5.0,16.0,66,0.00,,,0.00,Wunderground PWS Mod,2013-03-14 17:27:00,
2013-03-14 13:32:00,25.0,15.2,29.67,ENE,77,6.0,16.0,66,0.00,,,0.00,Wunderground PWS Mod,2013-03-14 17:32:00,
2013-03-14 13:42:00,24.8,14.7,29.68,NNE,32,6.0,15.0,65,0.00,,,0.00,Wunderground PWS Mod,2013-03-14 17:42:00,
2013-03-14 13:45:00,24.5,14.4,29.67,North,0,4.0,14.0,65,0.00,,,0.00,Wunderground PWS Mod,2013-03-14 17:45:00,
2013-03-14 13:52:00,24.5,14.1,29.67,North,11,5.0,15.0,64,0.00,,,0.00,Wunderground PWS Mod,2013-03-14 17:52:00,
2013-03-14 14:02:00,24.7,13.9,29.67,North,355,4.0,15.0,63,0.00,,,0.00,Wunderground PWS Mod,2013-03-14 18:02:00,
2013-03-14 14:12:00,24.8,14.3,29.67,WSW,252,2.0,14.0,64,0.00,,,0.00,Wunderground PWS Mod,2013-03-14 18:12:00,
2013-03-14 14:15:00,23.6,13.9,29.68,WSW,248,3.0,17.0,66,0.00,,,0.00,Wunderground PWS Mod,2013-03-14 18:15:00,
2013-03-14 14:22:00,23.9,13.8,29.67,NE,34,5.0,14.0,65,0.00,,,0.00,Wunderground PWS Mod,2013-03-14 18:22:00,
2013-03-14 14:27:00,23.9,13.5,29.67,NNW,342,4.0,14.0,64,0.00,,,0.00,Wunderground PWS Mod,2013-03-14 18:27:00,
2013-03-14 14:37:00,23.6,13.9,29.68,WNW,290,2.0,14.0,66,0.00,,,0.00,Wunderground PWS Mod,2013-03-14 18:37:00,
2013-03-14 14:42:00,23.2,13.5,29.68,WSW,237,3.0,17.0,66,0.00,,,0.00,Wunderground PWS Mod,2013-03-14 18:42:00,
2013-03-14 14:50:00,21.4,12.8,29.69,WSW,248,6.0,16.0,69,0.00,,,0.00,Wunderground PWS Mod,2013-03-14 18:50:00,
2013-03-14 14:52:00,22.5,13.5,29.68,SW,231,5.0,17.0,68,0.00,,,0.00,Wunderground PWS Mod,2013-03-14 18:52:00,
2013-03-14 14:57:00,22.5,13.2,29.68,WSW,244,4.0,17.0,67,0.00,,,0.00,Wunderground PWS Mod,2013-03-14 18:57:00,
2013-03-14 15:02:00,21.6,12.3,29.68,North,360,6.0,17.0,67,0.00,,,0.00,Wunderground PWS Mod,2013-03-14 19:02:00,
2013-03-14 15:13:00,21.4,12.5,29.69,SSE,148,5.0,16.0,68,0.00,,,0.00,Wunderground PWS Mod,2013-03-14 19:13:00,
2013-03-14 15:15:00,20.3,10.4,29.70,WSW,248,4.0,19.0,65,0.00,,,0.00,Wunderground PWS Mod,2013-03-14 19:15:00,
2013-03-14 15:22:00,21.6,13.0,29.70,WNW,298,3.0,16.0,69,0.00,,,0.00,Wunderground PWS Mod,2013-03-14 19:22:00,
2013-03-14 15:32:00,20.8,10.5,29.70,SW,230,5.0,16.0,64,0.00,,,0.00,Wunderground PWS Mod,2013-03-14 19:32:00,
2013-03-14 15:37:00,20.3,10.4,29.70,West,277,6.0,16.0,65,0.00,,,0.00,Wunderground PWS Mod,2013-03-14 19:37:00,
2013-03-14 15:40:00,20.3,10.4,29.70,WSW,248,4.0,19.0,65,0.00,,,0.00,Wunderground PWS Mod,2013-03-14 19:40:00,
2013-03-14 15:47:00,20.0,10.1,29.70,NW,325,6.0,19.0,65,0.00,,,0.00,Wunderground PWS Mod,2013-03-14 19:47:00,
2013-03-14 15:57:00,19.5,9.6,29.72,NE,45,6.0,19.0,65,0.00,,,0.00,Wunderground PWS Mod,2013-03-14 19:57:00,
2013-03-14 16:02:00,19.2,9.4,29.72,NNE,16,5.0,19.0,65,0.00,,,0.00,Wunderground PWS Mod,2013-03-14 20:02:00,
2013-03-14 16:07:00,19.2,9.0,29.72,North,9,8.0,19.0,64,0.00,,,0.00,Wunderground PWS Mod,2013-03-14 20:07:00,
2013-03-14 16:12:00,19.1,8.2,29.72,WNW,290,9.0,19.0,62,0.00,,,0.00,Wunderground PWS Mod,2013-03-14 20:12:00,
2013-03-14 16:15:00,18.8,8.6,29.73,North,0,6.0,18.0,64,0.00,,,0.00,Wunderground PWS Mod,2013-03-14 20:15:00,
2013-03-14 16:22:00,19.1,8.9,29.73,WNW,297,4.0,19.0,64,0.00,,,0.00,Wunderground PWS Mod,2013-03-14 20:22:00,
2013-03-14 16:27:00,18.9,8.0,29.73,NW,323,5.0,19.0,62,0.00,,,0.00,Wunderground PWS Mod,2013-03-14 20:27:00,
2013-03-14 16:37:00,18.8,8.6,29.73,NE,38,6.0,19.0,64,0.00,,,0.00,Wunderground PWS Mod,2013-03-14 20:37:00,
2013-03-14 16:42:00,18.9,9.1,29.73,NNE,15,4.0,18.0,65,0.00,,,0.00,Wunderground PWS Mod,2013-03-14 20:42:00,
2013-03-14 16:50:00,18.0,8.2,29.75,North,0,5.0,15.0,65,0.00,,,0.00,Wunderground PWS Mod,2013-03-14 20:50:00,
2013-03-14 16:52:00,18.4,8.6,29.74,NW,313,5.0,18.0,65,0.00,,,0.00,Wunderground PWS Mod,2013-03-14 20:52:00,
2013-03-14 16:57:00,18.1,8.3,29.74,NNW,348,6.0,18.0,65,0.00,,,0.00,Wunderground PWS Mod,2013-03-14 20:57:00,
2013-03-14 17:02:00,18.0,8.2,29.74,NNW,342,5.0,18.0,65,0.00,,,0.00,Wunderground PWS Mod,2013-03-14 21:02:00,
2013-03-14 17:07:00,18.0,8.2,29.75,North,5,4.0,18.0,65,0.00,,,0.00,Wunderground PWS Mod,2013-03-14 21:07:00,
2013-03-14 17:12:00,17.8,7.7,29.75,North,360,6.0,15.0,64,0.00,,,0.00,Wunderground PWS Mod,2013-03-14 21:12:00,
2013-03-14 17:20:00,17.8,8.0,29.77,North,0,5.0,15.0,65,0.00,,,0.00,Wunderground PWS Mod,2013-03-14 21:20:00,
2013-03-14 17:22:00,17.8,7.3,29.76,NW,314,6.0,15.0,63,0.00,,,0.00,Wunderground PWS Mod,2013-03-14 21:22:00,
2013-03-14 17:27:00,17.7,7.9,29.76,NE,34,4.0,15.0,65,0.00,,,0.00,Wunderground PWS Mod,2013-03-14 21:27:00,
2013-03-14 17:32:00,17.8,8.0,29.76,WNW,300,3.0,15.0,65,0.00,,,0.00,Wunderground PWS Mod,2013-03-14 21:32:00,
2013-03-14 17:37:00,17.8,8.0,29.77,SSE,148,3.0,15.0,65,0.00,,,0.00,Wunderground PWS Mod,2013-03-14 21:37:00,
2013-03-14 17:42:00,17.7,8.9,29.77,WNW,286,4.0,15.0,68,0.00,,,0.00,Wunderground PWS Mod,2013-03-14 21:42:00,
2013-03-14 17:45:00,16.9,8.8,29.77,NNE,23,3.0,12.0,70,0.00,,,0.00,Wunderground PWS Mod,2013-03-14 21:45:00,
2013-03-14 17:57:00,17.0,8.6,29.77,North,355,3.0,15.0,69,0.00,,,0.00,Wunderground PWS Mod,2013-03-14 21:57:00,
2013-03-14 18:02:00,16.9,9.1,29.77,South,185,3.0,15.0,71,0.00,,,0.00,Wunderground PWS Mod,2013-03-14 22:02:00,
2013-03-14 18:12:00,16.7,8.6,29.77,NNW,338,1.0,12.0,70,0.00,,,0.00,Wunderground PWS Mod,2013-03-14 22:12:00,
2013-03-14 18:20:00,16.4,5.6,29.79,NNE,23,3.0,14.0,62,0.00,,,0.00,Wunderground PWS Mod,2013-03-14 22:20:00,
2013-03-14 18:22:00,16.2,7.2,29.79,ESE,109,4.0,12.0,67,0.00,,,0.00,Wunderground PWS Mod,2013-03-14 22:22:00,
2013-03-14 18:27:00,16.2,6.8,29.79,WSW,243,3.0,12.0,66,0.00,,,0.00,Wunderground PWS Mod,2013-03-14 22:27:00,
2013-03-14 18:32:00,16.4,6.0,29.79,West,264,2.0,12.0,63,0.00,,,0.00,Wunderground PWS Mod,2013-03-14 22:32:00,
2013-03-14 18:37:00,16.4,6.0,29.79,SSW,192,3.0,12.0,63,0.00,,,0.00,Wunderground PWS Mod,2013-03-14 22:37:00,
2013-03-14 18:40:00,16.4,5.6,29.79,NNE,23,3.0,14.0,62,0.00,,,0.00,Wunderground PWS Mod,2013-03-14 22:40:00,
2013-03-14 18:47:00,16.7,5.9,29.79,SW,222,1.0,14.0,62,0.00,,,0.00,Wunderground PWS Mod,2013-03-14 22:47:00,
2013-03-14 18:57:00,16.5,5.0,29.79,West,271,2.0,14.0,60,0.00,,,0.00,Wunderground PWS Mod,2013-03-14 22:57:00,
2013-03-14 19:02:00,16.5,4.7,29.79,WNW,288,2.0,14.0,59,0.00,,,0.00,Wunderground PWS Mod,2013-03-14 23:02:00,
2013-03-14 19:07:00,16.5,4.7,29.80,WNW,298,3.0,14.0,59,0.00,,,0.00,Wunderground PWS Mod,2013-03-14 23:07:00,
2013-03-14 19:13:00,16.4,4.9,29.80,West,265,4.0,10.0,60,0.00,,,0.00,Wunderground PWS Mod,2013-03-14 23:13:00,
2013-03-14 19:15:00,16.1,7.1,29.80,WSW,248,2.0,11.0,67,0.00,,,0.00,Wunderground PWS Mod,2013-03-14 23:15:00,
2013-03-14 19:22:00,16.2,5.8,29.80,NNE,15,3.0,10.0,63,0.00,,,0.00,Wunderground PWS Mod,2013-03-14 23:22:00,
2013-03-14 19:32:00,16.2,6.5,29.80,NNE,29,1.0,10.0,65,0.00,,,0.00,Wunderground PWS Mod,2013-03-14 23:32:00,
2013-03-14 19:37:00,16.1,7.1,29.80,NNE,29,1.0,10.0,67,0.00,,,0.00,Wunderground PWS Mod,2013-03-14 23:37:00,
2013-03-14 19:42:00,15.9,7.2,29.80,NNE,28,0.0,11.0,68,0.00,,,0.00,Wunderground PWS Mod,2013-03-14 23:42:00,
2013-03-14 19:50:00,15.2,8.7,29.81,West,270,1.0,9.0,75,0.00,,,0.00,Wunderground PWS Mod,2013-03-14 23:50:00,
2013-03-14 19:52:00,15.6,7.9,29.80,West,275,2.0,11.0,71,0.00,,,0.00,Wunderground PWS Mod,2013-03-14 23:52:00,
2013-03-14 19:57:00,15.4,8.3,29.80,NW,309,2.0,11.0,73,0.00,,,0.00,Wunderground PWS Mod,2013-03-14 23:57:00,
2013-03-14 20:02:00,15.2,8.4,29.80,ENE,70,1.0,11.0,74,0.00,,,0.00,Wunderground PWS Mod,2013-03-15 00:02:00,
2013-03-14 20:07:00,15.2,8.7,29.81,West,263,1.0,11.0,75,0.00,,,0.00,Wunderground PWS Mod,2013-03-15 00:07:00,
2013-03-14 20:13:00,15.2,9.0,29.81,WNW,286,1.0,9.0,76,0.00,,,0.00,Wunderground PWS Mod,2013-03-15 00:13:00,
2013-03-14 20:22:00,15.1,9.2,29.81,SSW,212,1.0,9.0,77,0.00,,,0.00,Wunderground PWS Mod,2013-03-15 00:22:00,
2013-03-14 20:25:00,15.1,9.5,29.82,West,270,1.0,9.0,78,0.00,,,0.00,Wunderground PWS Mod,2013-03-15 00:25:00,
2013-03-14 20:27:00,15.1,9.2,29.81,West,271,1.0,9.0,77,0.00,,,0.00,Wunderground PWS Mod,2013-03-15 00:27:00,
2013-03-14 20:32:00,15.1,9.5,29.81,WSW,238,1.0,9.0,78,0.00,,,0.00,Wunderground PWS Mod,2013-03-15 00:32:00,
2013-03-14 20:37:00,15.1,9.5,29.82,WSW,254,1.0,9.0,78,0.00,,,0.00,Wunderground PWS Mod,2013-03-15 00:37:00,
2013-03-14 20:42:00,15.1,9.8,29.82,WNW,296,2.0,9.0,79,0.00,,,0.00,Wunderground PWS Mod,2013-03-15 00:42:00,
2013-03-14 20:50:00,14.9,9.3,29.82,WNW,293,1.0,9.0,78,0.00,,,0.00,Wunderground PWS Mod,2013-03-15 00:50:00,
2013-03-14 20:52:00,14.9,9.6,29.82,NNE,13,1.0,9.0,79,0.00,,,0.00,Wunderground PWS Mod,2013-03-15 00:52:00,
2013-03-14 20:57:00,14.9,9.3,29.82,NW,311,1.0,9.0,78,0.00,,,0.00,Wunderground PWS Mod,2013-03-15 00:57:00,
2013-03-14 21:02:00,14.9,9.6,29.82,SSE,151,2.0,9.0,79,0.00,,,0.00,Wunderground PWS Mod,2013-03-15 01:02:00,
2013-03-14 21:07:00,14.9,9.3,29.82,SSW,213,1.0,9.0,78,0.00,,,0.00,Wunderground PWS Mod,2013-03-15 01:07:00,
2013-03-14 21:13:00,14.8,8.6,29.82,SSW,213,0.0,9.0,76,0.00,,,0.00,Wunderground PWS Mod,2013-03-15 01:13:00,
2013-03-14 21:22:00,14.9,7.5,29.82,West,271,1.0,9.0,72,0.00,,,0.00,Wunderground PWS Mod,2013-03-15 01:22:00,
2013-03-14 21:25:00,14.9,6.2,29.82,NNW,338,1.0,8.0,68,0.00,,,0.00,Wunderground PWS Mod,2013-03-15 01:25:00,
2013-03-14 21:32:00,14.9,6.6,29.82,NNW,348,1.0,9.0,69,0.00,,,0.00,Wunderground PWS Mod,2013-03-15 01:32:00,
2013-03-14 21:37:00,14.9,6.2,29.82,NNW,348,1.0,9.0,68,0.00,,,0.00,Wunderground PWS Mod,2013-03-15 01:37:00,
2013-03-14 21:40:00,14.9,6.2,29.82,NNW,338,1.0,8.0,68,0.00,,,0.00,Wunderground PWS Mod,2013-03-15 01:40:00,
2013-03-14 21:42:00,14.9,5.6,29.82,NW,314,1.0,8.0,66,0.00,,,0.00,Wunderground PWS Mod,2013-03-15 01:42:00,
2013-03-14 21:47:00,14.9,4.6,29.82,North,355,2.0,8.0,63,0.00,,,0.00,Wunderground PWS Mod,2013-03-15 01:47:00,
2013-03-14 21:57:00,14.9,4.9,29.82,North,360,1.0,8.0,64,0.00,,,0.00,Wunderground PWS Mod,2013-03-15 01:57:00,
2013-03-14 22:02:00,14.9,4.6,29.82,WSW,257,1.0,8.0,63,0.00,,,0.00,Wunderground PWS Mod,2013-03-15 02:02:00,
2013-03-14 22:07:00,15.1,4.4,29.82,WNW,298,1.0,8.0,62,0.00,,,0.00,Wunderground PWS Mod,2013-03-15 02:07:00,
2013-03-14 22:13:00,14.9,4.2,29.82,WNW,286,1.0,7.0,62,0.00,,,0.00,Wunderground PWS Mod,2013-03-15 02:13:00,
2013-03-14 22:22:00,14.9,4.2,29.82,SE,136,0.0,7.0,62,0.00,,,0.00,Wunderground PWS Mod,2013-03-15 02:22:00,
2013-03-14 22:27:00,14.9,4.2,29.82,WSW,242,0.0,7.0,62,0.00,,,0.00,Wunderground PWS Mod,2013-03-15 02:27:00,
2013-03-14 22:30:00,14.9,4.2,29.82,WSW,248,1.0,5.0,62,0.00,,,0.00,Wunderground PWS Mod,2013-03-15 02:30:00,
2013-03-14 22:37:00,14.9,4.2,29.82,WSW,238,1.0,7.0,62,0.00,,,0.00,Wunderground PWS Mod,2013-03-15 02:37:00,
2013-03-14 22:42:00,14.9,4.2,29.82,SSE,150,1.0,5.0,62,0.00,,,0.00,Wunderground PWS Mod,2013-03-15 02:42:00,
2013-03-14 22:45:00,14.6,4.6,29.82,West,270,1.0,10.0,64,0.00,,,0.00,Wunderground PWS Mod,2013-03-15 02:45:00,
2013-03-14 22:52:00,14.8,4.8,29.82,South,184,1.0,5.0,64,0.00,,,0.00,Wunderground PWS Mod,2013-03-15 02:52:00,
2013-03-14 23:02:00,14.6,4.3,29.82,SW,219,3.0,5.0,63,0.00,,,0.00,Wunderground PWS Mod,2013-03-15 03:02:00,
2013-03-14 23:13:00,14.6,4.6,29.82,ENE,66,2.0,10.0,64,0.00,,,0.00,Wunderground PWS Mod,2013-03-15 03:13:00,
2013-03-14 23:20:00,14.6,5.3,29.82,West,270,2.0,13.0,66,0.00,,,0.00,Wunderground PWS Mod,2013-03-15 03:20:00,
2013-03-14 23:22:00,14.6,5.3,29.82,WSW,258,2.0,10.0,66,0.00,,,0.00,Wunderground PWS Mod,2013-03-15 03:22:00,
2013-03-14 23:27:00,14.6,5.6,29.82,West,278,2.0,10.0,67,0.00,,,0.00,Wunderground PWS Mod,2013-03-15 03:27:00,
2013-03-14 23:32:00,14.6,5.6,29.82,SW,230,2.0,10.0,67,0.00,,,0.00,Wunderground PWS Mod,2013-03-15 03:32:00,
2013-03-14 23:37:00,14.6,5.3,29.82,WSW,241,3.0,10.0,66,0.00,,,0.00,Wunderground PWS Mod,2013-03-15 03:37:00,
2013-03-14 23:42:00,14.6,5.3,29.82,West,281,2.0,13.0,66,0.00,,,0.00,Wunderground PWS Mod,2013-03-15 03:42:00,
2013-03-14 23:45:00,14.6,4.3,29.82,West,270,2.0,14.0,63,0.00,,,0.00,Wunderground PWS Mod,2013-03-15 03:45:00,
2013-03-14 23:52:00,14.6,5.0,29.82,West,263,3.0,13.0,65,0.00,,,0.00,Wunderground PWS Mod,2013-03-15 03:52:00,
2013-03-14 23:57:00,14.6,4.6,29.82,SSE,153,3.0,13.0,64,0.00,,,0.00,Wunderground PWS Mod,2013-03-15 03:57:00,